YO8KGT-13 Weather Reports


time (UTC)temp
C
wind
direction
speed
KPH
gust
KPH
rain 1hr
cm
rain 24hr
cm
rain mn
cm
humidity
%
barometer
mb
20260507065427 22 248 6.4 6.4 0.00 0.00 0.00 51 944.0
20260507064928 22 248 4.8 4.8 0.00 0.00 0.00 52 944.0
20260507063928 21 248 0.0 3.2 0.00 0.00 0.00 53 944.0
20260507062443 21 248 0.0 1.6 0.00 0.00 0.00 56 944.0
20260507061931 20 248 0.0 0.0 0.00 0.00 0.00 56 944.0
20260507061448 20 248 0.0 3.2 0.00 0.00 0.00 57 944.0
20260507060927 19 248 0.0 3.2 0.00 0.00 0.00 57 944.0
20260507060427 19 248 0.0 3.2 0.00 0.00 0.00 58 944.0
20260507055428 18 248 0.0 3.2 0.00 0.00 0.00 59 944.0
20260507054928 17 248 0.0 3.2 0.00 0.00 0.00 60 944.0
20260507054427 17 248 0.0 3.2 0.00 0.00 0.00 61 944.0
20260507053934 17 248 0.0 3.2 0.00 0.00 0.00 61 944.0
20260507052936 16 248 3.2 4.8 0.00 0.00 0.00 62 945.0
20260507051427 16 248 0.0 0.0 0.00 0.00 0.00 64 945.0
20260507050431 15 225 0.0 3.2 0.00 0.00 0.00 65 944.0
20260507045426 15 225 0.0 1.6 0.00 0.00 0.00 66 945.0
20260507044927 14 225 0.0 1.6 0.00 0.00 0.00 67 944.0
20260507044427 14 225 0.0 0.0 0.00 0.00 0.00 67 945.0
20260507043429 13 225 0.0 3.2 0.00 0.00 0.00 67 944.0
20260507042927 13 225 0.0 3.2 0.00 0.00 0.00 68 944.0
20260507042427 13 225 0.0 0.0 0.00 0.00 0.00 68 944.0
20260507041931 13 225 0.0 0.0 0.00 0.00 0.00 69 944.0
20260507041435 13 225 0.0 0.0 0.00 0.00 0.00 69 944.0
20260507040926 12 225 0.0 0.0 0.00 0.00 0.00 69 944.0
20260507040429 12 225 0.0 0.0 0.00 0.00 0.00 69 944.0
20260507035943 12 225 0.0 0.0 0.00 0.00 0.00 69 944.0
20260507034927 11 225 0.0 0.0 0.00 0.00 0.00 70 944.0
20260507033928 11 225 0.0 0.0 0.00 0.00 0.00 70 944.0
20260507033428 11 225 0.0 0.0 0.00 0.00 0.00 70 944.0
20260507032928 11 225 0.0 0.0 0.00 0.00 0.00 70 944.0
20260507032428 11 225 0.0 1.6 0.00 0.00 0.00 70 944.0
20260507025932 10 225 0.0 1.6 0.00 0.00 0.00 70 944.0
20260507024429 10 225 0.0 0.0 0.00 0.00 0.00 69 944.0
20260507023926 10 225 0.0 0.0 0.00 0.00 0.00 69 944.0
20260507022432 11 225 0.0 0.0 0.00 0.00 0.00 69 944.0
20260507021928 11 225 0.0 0.0 0.00 0.00 0.00 68 944.0
20260507020930 11 225 0.0 0.0 0.00 0.00 0.00 68 944.0
20260507020429 11 225 0.0 1.6 0.00 0.00 0.00 67 944.0
20260507014939 11 225 0.0 4.8 0.00 0.00 0.00 67 944.0
20260507014431 11 225 0.0 4.8 0.00 0.00 0.00 67 944.0
20260507013927 11 225 1.6 4.8 0.00 0.00 0.00 67 944.0
20260507013427 11 225 3.2 4.8 0.00 0.00 0.00 66 944.0
20260507012945 11 225 1.6 4.8 0.00 0.00 0.00 66 944.0
20260507012427 11 225 4.8 6.4 0.00 0.00 0.00 66 943.0
20260507011927 12 225 3.2 8.0 0.00 0.00 0.00 66 944.0
20260507011427 12 225 4.8 8.0 0.00 0.00 0.00 65 943.0
20260507005927 12 202 6.4 9.7 0.00 0.00 0.00 65 943.0
20260507005428 12 248 6.4 9.7 0.00 0.00 0.00 64 943.0
20260507004434 12 248 6.4 6.4 0.00 0.00 0.00 65 943.0
20260507002926 12 248 3.2 3.2 0.00 0.00 0.00 64 943.0
20260507002445 12 248 0.0 1.6 0.00 0.00 0.00 63 943.0
20260507001927 12 248 0.0 0.0 0.00 0.00 0.00 63 943.0
20260507000927 12 248 0.0 0.0 0.00 0.00 0.00 62 944.0
20260507000427 12 248 0.0 0.0 0.00 0.00 0.00 62 943.0
20260506235430 12 248 0.0 3.2 0.00 0.00 0.00 62 943.0
20260506234927 12 248 0.0 3.2 0.00 0.00 0.00 61 943.0
20260506234428 13 248 3.2 3.2 0.00 0.00 0.00 61 943.0
20260506231942 13 248 3.2 3.2 0.00 0.00 0.00 60 943.0
20260506225943 13 248 0.0 0.0 0.00 0.00 0.00 59 943.0
20260506225427 13 248 0.0 3.2 0.00 0.00 0.00 59 943.0
20260506224426 13 248 0.0 0.0 0.00 0.00 0.00 58 943.0
20260506223426 13 248 0.0 0.0 0.00 0.00 0.00 58 943.0
20260506222926 13 248 0.0 3.2 0.00 0.00 0.00 57 943.0
20260506222430 13 248 0.0 3.2 0.00 0.00 0.00 57 943.0
20260506221927 14 248 0.0 0.0 0.00 0.00 0.00 56 943.0
20260506220930 14 248 0.0 0.0 0.00 0.00 0.00 56 943.0
20260506215936 14 248 0.0 3.2 0.00 0.00 0.00 56 943.0
20260506214925 15 248 3.2 3.2 0.00 0.00 0.00 55 943.0
20260506214427 15 248 0.0 0.0 0.00 0.00 0.00 54 943.0
20260506212931 15 248 0.0 3.2 0.00 0.00 0.00 54 943.0
20260506211926 15 248 1.6 3.2 0.00 0.00 0.00 53 942.0
20260506211431 15 248 3.2 3.2 0.00 0.00 0.00 53 942.0
20260506210928 15 248 0.0 0.0 0.00 0.00 0.00 52 942.0
20260506210426 15 248 0.0 0.0 0.00 0.00 0.00 52 942.0
20260506205433 16 248 0.0 0.0 0.00 0.00 0.00 52 942.0
20260506203438 16 248 0.0 1.6 0.00 0.00 0.00 50 942.0
20260506202927 16 248 0.0 1.6 0.00 0.00 0.00 49 942.0
20260506202427 16 248 1.6 1.6 0.00 0.00 0.00 49 942.0
20260506200926 16 248 0.0 3.2 0.00 0.00 0.00 48 942.0
20260506200446 17 248 0.0 1.6 0.00 0.00 0.00 48 942.0
20260506194929 17 248 6.4 6.4 0.00 0.00 0.00 47 942.0
20260506194427 17 248 0.0 3.2 0.00 0.00 0.00 47 942.0
20260506193446 17 248 1.6 1.6 0.00 0.00 0.00 46 942.0
20260506191426 17 248 3.2 4.8 0.00 0.00 0.00 44 942.0
20260506190929 18 248 3.2 3.2 0.00 0.00 0.00 44 942.0
20260506190425 18 248 3.2 4.8 0.00 0.00 0.00 44 942.0
20260506185926 18 248 0.0 4.8 0.00 0.00 0.00 43 942.0
20260506184937 18 248 0.0 3.2 0.00 0.00 0.00 42 942.0
20260506184427 18 248 1.6 4.8 0.00 0.00 0.00 42 942.0
20260506181927 19 225 3.2 6.4 0.00 0.00 0.00 39 941.0
20260506181425 20 225 1.6 6.4 0.00 0.00 0.00 39 942.0
20260506180926 20 225 6.4 6.4 0.00 0.00 0.00 38 941.0
20260506180427 20 202 1.6 6.4 0.00 0.00 0.00 38 941.0
20260506175926 20 248 4.8 6.4 0.00 0.00 0.00 38 941.0
20260506175426 20 248 3.2 6.4 0.00 0.00 0.00 37 941.0
20260506173926 20 248 6.4 6.4 0.00 0.00 0.00 36 941.0
20260506173426 21 0 0.0 4.8 0.00 0.00 0.00 36 941.0
20260506172943 21 248 0.0 4.8 0.00 0.00 0.00 35 941.0
20260506172439 21 135 4.8 6.4 0.00 0.00 0.00 35 941.0
20260506170426 22 68 0.0 8.0 0.00 0.00 0.00 34 941.0
20260506165426 22 202 0.0 3.2 0.00 0.00 0.00 33 941.0
20260506164926 22 0 0.0 3.2 0.00 0.00 0.00 32 941.0
20260506163930 23 22 0.0 3.2 0.00 0.00 0.00 31 941.0
20260506163428 23 135 3.2 3.2 0.00 0.00 0.00 31 941.0
20260506161926 23 90 0.0 6.4 0.00 0.00 0.00 29 941.0
20260506161425 23 90 3.2 3.2 0.00 0.00 0.00 29 941.0
20260506160927 24 248 3.2 4.8 0.00 0.00 0.00 29 941.0
20260506155427 24 90 3.2 6.4 0.00 0.00 0.00 28 941.0
20260506153426 25 270 3.2 3.2 0.00 0.00 0.00 28 941.0
20260506152926 25 315 1.6 6.4 0.00 0.00 0.00 28 941.0
20260506152427 25 292 0.0 8.0 0.00 0.00 0.00 27 941.0
20260506150927 26 292 3.2 8.0 0.00 0.00 0.00 26 941.0
20260506150425 26 315 0.0 4.8 0.00 0.00 0.00 26 941.0
20260506144429 27 90 0.0 3.2 0.00 0.00 0.00 26 941.0
20260506142926 27 270 0.0 8.0 0.00 0.00 0.00 25 941.0
20260506142426 27 248 1.6 8.0 0.00 0.00 0.00 25 941.0
20260506141928 28 225 4.8 8.0 0.00 0.00 0.00 25 941.0
20260506141435 28 112 6.4 6.4 0.00 0.00 0.00 25 941.0
20260506140926 28 68 3.2 6.4 0.00 0.00 0.00 25 941.0
20260506135925 29 0 0.0 6.4 0.00 0.00 0.00 23 941.0
20260506135445 29 135 0.0 4.8 0.00 0.00 0.00 23 941.0
20260506134926 29 0 1.6 4.8 0.00 0.00 0.00 23 941.0
20260506134426 30 338 0.0 6.4 0.00 0.00 0.00 23 941.0
20260506131431 31 22 0.0 8.0 0.00 0.00 0.00 22 941.0
20260506130936 31 248 3.2 8.0 0.00 0.00 0.00 22 941.0
20260506130427 31 0 0.0 4.8 0.00 0.00 0.00 22 941.0
20260506124428 31 248 3.2 4.8 0.00 0.00 0.00 21 941.0
20260506123927 32 0 4.8 11.3 0.00 0.00 0.00 21 941.0
20260506123427 32 248 3.2 11.3 0.00 0.00 0.00 21 941.0
20260506122425 32 270 0.0 8.0 0.00 0.00 0.00 21 941.0
20260506121425 32 90 3.2 4.8 0.00 0.00 0.00 21 941.0
20260506120926 32 90 4.8 4.8 0.00 0.00 0.00 21 942.0
20260506120433 32 270 0.0 4.8 0.00 0.00 0.00 21 941.0
20260506115926 32 270 0.0 16.1 0.00 0.00 0.00 21 942.0
20260506114943 32 292 1.6 16.1 0.00 0.00 0.00 21 942.0
20260506114439 32 270 1.6 9.7 0.00 0.00 0.00 21 942.0
20260506113925 32 90 4.8 9.7 0.00 0.00 0.00 21 942.0
20260506113426 32 68 3.2 6.4 0.00 0.00 0.00 22 942.0
20260506112425 33 90 1.6 3.2 0.00 0.00 0.00 22 942.0
20260506111425 33 0 0.0 3.2 0.00 0.00 0.00 22 942.0
20260506110925 33 338 0.0 3.2 0.00 0.00 0.00 22 942.0
20260506110432 33 338 0.0 3.2 0.00 0.00 0.00 22 942.0
20260506105933 33 22 3.2 3.2 0.00 0.00 0.00 23 942.0
20260506104010 33 45 4.8 6.4 0.00 0.00 0.00 24 942.0
20260506103430 33 270 4.8 6.4 0.00 0.00 0.00 24 942.0
20260506100924 32 90 0.0 4.8 0.00 0.00 0.00 25 943.0
20260506095937 31 338 3.2 6.4 0.00 0.00 0.00 25 943.0
20260506095500 31 338 0.0 4.8 0.00 0.00 0.00 26 943.0
20260506094929 31 0 0.0 4.8 0.00 0.00 0.00 26 943.0
20260506094425 31 292 0.0 4.8 0.00 0.00 0.00 26 943.0
20260506093428 30 158 0.0 4.8 0.00 0.00 0.00 27 943.0
20260506092927 30 0 0.0 4.8 0.00 0.00 0.00 28 943.0
20260506092425 29 270 3.2 4.8 0.00 0.00 0.00 29 943.0
20260506090950 28 270 1.6 4.8 0.00 0.00 0.00 30 943.0
20260506090425 28 248 4.8 4.8 0.00 0.00 0.00 30 943.0
20260506085926 28 315 0.0 3.2 0.00 0.00 0.00 30 943.0
20260506083926 27 338 0.0 3.2 0.00 0.00 0.00 32 943.0
20260506083436 27 315 0.0 3.2 0.00 0.00 0.00 32 943.0
20260506082925 27 315 0.0 3.2 0.00 0.00 0.00 33 943.0
20260506082439 27 338 0.0 3.2 0.00 0.00 0.00 34 943.0
20260506081925 26 270 0.0 3.2 0.00 0.00 0.00 35 943.0
20260506080925 26 0 0.0 0.0 0.00 0.00 0.00 37 943.0
20260506080426 26 22 0.0 0.0 0.00 0.00 0.00 37 943.0